Time,TemperatureF,DewpointF,PressureIn,WindDirection,WindDirectionDegrees,WindSpeedMPH,WindSpeedGustMPH,Humidity,HourlyPrecipIn,Conditions,Clouds,dailyrainin,SoftwareType,DateUTC
2016-07-26 00:01:00,75.0,72.0,29.83,ESE,123,-999.9,-999.0,90,-99.99,,,-99.99,,2016-07-26 05:01:00,
2016-07-26 00:25:00,75.0,72.0,29.82,ESE,123,0.0,-999.0,90,-99.99,,,-99.99,,2016-07-26 05:25:00,
2016-07-26 00:33:00,74.0,71.0,29.81,ESE,123,0.0,-999.0,90,-99.99,,,-99.99,,2016-07-26 05:33:00,
2016-07-26 00:45:00,74.0,71.0,29.82,ESE,123,-999.9,-999.0,90,-99.99,,,-99.99,,2016-07-26 05:45:00,
2016-07-26 00:53:00,74.0,71.0,29.82,ESE,123,0.0,-999.0,90,-99.99,,,-99.99,,2016-07-26 05:53:00,
2016-07-26 01:04:00,74.0,71.0,29.81,ESE,123,0.0,-999.0,90,-99.99,,,-99.99,,2016-07-26 06:04:00,
2016-07-26 01:23:00,74.0,71.0,29.81,ESE,123,0.0,-999.0,91,-99.99,,,-99.99,,2016-07-26 06:23:00,
2016-07-26 01:32:00,74.0,71.0,29.80,ESE,123,0.0,-999.0,91,-99.99,,,-99.99,,2016-07-26 06:32:00,
2016-07-26 01:48:00,74.0,71.0,29.81,ESE,123,0.0,-999.0,91,-99.99,,,-99.99,,2016-07-26 06:48:00,
2016-07-26 02:17:00,73.0,70.0,29.81,ESE,123,0.0,-999.0,91,-99.99,,,-99.99,,2016-07-26 07:17:00,
2016-07-26 02:25:00,73.0,70.0,29.82,ESE,123,0.0,-999.0,91,-99.99,,,-99.99,,2016-07-26 07:25:00,
2016-07-26 02:37:00,73.0,70.0,29.82,ESE,123,0.0,-999.0,91,-99.99,,,-99.99,,2016-07-26 07:37:00,
2016-07-26 02:47:00,73.0,70.0,29.82,ESE,123,0.0,-999.0,91,-99.99,,,-99.99,,2016-07-26 07:47:00,
2016-07-26 02:56:00,73.0,70.0,29.82,ESE,123,0.0,-999.0,91,-99.99,,,-99.99,,2016-07-26 07:56:00,
2016-07-26 03:03:00,73.0,70.0,29.82,ESE,123,0.0,-999.0,91,-99.99,,,-99.99,,2016-07-26 08:03:00,
2016-07-26 03:13:00,73.0,71.0,29.83,ESE,123,0.0,-999.0,92,-99.99,,,-99.99,,2016-07-26 08:13:00,
2016-07-26 03:23:00,73.0,71.0,29.82,ESE,123,0.0,-999.0,92,-99.99,,,-99.99,,2016-07-26 08:23:00,
2016-07-26 03:34:00,73.0,71.0,29.82,ESE,123,0.0,-999.0,92,-99.99,,,-99.99,,2016-07-26 08:34:00,
2016-07-26 03:44:00,74.0,72.0,29.82,ESE,123,0.0,-999.0,92,-99.99,,,-99.99,,2016-07-26 08:44:00,
2016-07-26 03:54:00,74.0,72.0,29.83,ESE,123,0.0,-999.0,92,-99.99,,,-99.99,,2016-07-26 08:54:00,
2016-07-26 04:03:00,74.0,72.0,29.83,ESE,123,0.0,-999.0,92,-99.99,,,-99.99,,2016-07-26 09:03:00,
2016-07-26 04:13:00,74.0,72.0,29.82,ESE,123,0.0,-999.0,93,-99.99,,,-99.99,,2016-07-26 09:13:00,
2016-07-26 04:23:00,74.0,72.0,29.82,ESE,123,0.0,-999.0,92,-99.99,,,-99.99,,2016-07-26 09:23:00,
2016-07-26 05:10:00,74.0,72.0,29.83,ESE,123,0.0,-999.0,93,-99.99,,,-99.99,,2016-07-26 10:10:00,
2016-07-26 05:20:00,74.0,72.0,29.83,ESE,123,0.0,-999.0,93,-99.99,,,-99.99,,2016-07-26 10:20:00,
2016-07-26 05:40:00,74.0,72.0,29.84,ESE,123,0.0,-999.0,92,-99.99,,,-99.99,,2016-07-26 10:40:00,
2016-07-26 05:51:00,74.0,72.0,29.83,ESE,123,0.0,-999.0,93,-99.99,,,-99.99,,2016-07-26 10:51:00,
2016-07-26 06:12:00,74.0,72.0,29.83,ESE,123,0.0,-999.0,93,-99.99,,,-99.99,,2016-07-26 11:12:00,
2016-07-26 06:21:00,74.0,72.0,29.83,ESE,123,0.0,-999.0,93,-99.99,,,-99.99,,2016-07-26 11:21:00,
2016-07-26 06:54:00,74.0,72.0,29.85,ENE,57,0.0,-999.0,93,-99.99,,,-99.99,,2016-07-26 11:54:00,
2016-07-26 07:08:00,74.0,72.0,29.85,ENE,57,0.0,-999.0,93,-99.99,,,-99.99,,2016-07-26 12:08:00,
2016-07-26 07:15:00,74.0,72.0,29.85,ENE,57,0.0,-999.0,93,-99.99,,,-99.99,,2016-07-26 12:15:00,
2016-07-26 07:34:00,74.0,72.0,29.85,ENE,63,0.0,-999.0,93,-99.99,,,-99.99,,2016-07-26 12:34:00,
2016-07-26 07:48:00,74.0,72.0,29.86,ENE,65,0.0,-999.0,93,-99.99,,,-99.99,,2016-07-26 12:48:00,
2016-07-26 08:04:00,74.0,72.0,29.86,ENE,66,0.0,-999.0,93,-99.99,,,-99.99,,2016-07-26 13:04:00,
2016-07-26 08:14:00,75.0,73.0,29.86,ENE,64,0.0,-999.0,93,-99.99,,,-99.99,,2016-07-26 13:14:00,
2016-07-26 08:48:00,76.0,74.0,29.86,ENE,70,0.0,-999.0,92,-99.99,,,-99.99,,2016-07-26 13:48:00,
2016-07-26 08:56:00,76.0,73.0,29.87,ENE,75,0.0,-999.0,91,-99.99,,,-99.99,,2016-07-26 13:56:00,
2016-07-26 09:14:00,77.0,74.0,29.86,ENE,76,0.0,-999.0,90,-99.99,,,-99.99,,2016-07-26 14:14:00,
2016-07-26 09:23:00,77.0,74.0,29.86,ENE,76,0.0,-999.0,90,-99.99,,,-99.99,,2016-07-26 14:23:00,
2016-07-26 09:34:00,78.0,74.0,29.86,ENE,75,0.0,-999.0,88,-99.99,,,-99.99,,2016-07-26 14:34:00,
2016-07-26 09:44:00,78.0,73.0,29.87,East,87,0.0,-999.0,85,-99.99,,,-99.99,,2016-07-26 14:44:00,
2016-07-26 09:56:00,79.0,74.0,29.87,SE,128,0.0,-999.0,85,-99.99,,,-99.99,,2016-07-26 14:56:00,
2016-07-26 10:04:00,79.0,74.0,29.87,SE,128,0.0,-999.0,85,-99.99,,,-99.99,,2016-07-26 15:04:00,
2016-07-26 10:14:00,79.0,74.0,29.88,ENE,71,0.0,-999.0,84,-99.99,,,-99.99,,2016-07-26 15:14:00,
2016-07-26 10:23:00,79.0,74.0,29.88,ENE,71,0.0,-999.0,84,-99.99,,,-99.99,,2016-07-26 15:23:00,
2016-07-26 10:46:00,80.0,73.0,29.88,East,86,1.0,-999.0,80,-99.99,,,-99.99,,2016-07-26 15:46:00,
2016-07-26 11:00:00,80.0,73.0,29.88,East,86,1.0,-999.0,80,-99.99,,,-99.99,,2016-07-26 16:00:00,